[[{"header":{"parameterUnit":"m.s-1","parameterCategory":1,"la1":30.2991,"la2":30.254,"lo1":-89.0895,"lo2":-89.0444,"dx":0.0017,"dy":0.0017,"nx":28,"ny":28,"refTime":"2022-12-14T09:00:00:Z","depth":0,"parameterNumber":2,"parameterNumberName":"U-component_of_WINDS"},"data":[0,0,0,0,0,0,0,0,0,0,0,0,0,0,0,0,0,0,0,0,0,0,0,0,0,0,0,0,0,0,0,0,0,0,0,0,0,0,0,0,0,0,0,0,0,0,0,0,0,0,0,0,0,0,0,0,0,0,-2.2907,-2.2909,0,-2.3115,-2.3118,-2.312,-2.3212,-2.3211,-2.3211,-2.3211,-2.342,-2.3426,-2.3432,0,0,0,0,0,0,0,0,0,0,0,0,0,-2.2584,-2.259,-2.2907,-2.2909,-2.2912,-2.3115,-2.3118,-2.3121,-2.3212,-2.3211,-2.3211,-2.3211,-2.3419,-2.3425,-2.3432,0,0,0,0,0,0,0,0,0,0,0,0,0,-2.2751,-2.2592,-2.2906,-2.2982,-2.2991,-2.3114,-2.3118,-2.3121,-2.3212,-2.3211,-2.3211,-2.321,-2.3416,-2.3425,-2.3433,-2.3496,0,0,-2.346,-2.3464,0,0,0,0,0,0,0,0,-2.2742,-2.2763,-2.2968,-2.2977,-2.2987,-2.3137,-2.3081,-2.3247,-2.3212,-2.3128,-2.3211,-2.321,-2.3326,-2.3342,-2.3382,-2.3506,-2.3515,-2.3461,-2.3466,-2.347,-2.3473,0,0,0,0,0,0,0,-2.273,-2.2755,-2.2989,-2.2971,-2.2983,-2.3004,-2.3028,-2.3113,-2.3227,-2.3135,-2.3142,-2.3166,-2.3331,-2.3374,-2.3388,-2.3518,-2.3461,-2.3469,-2.3474,-2.3477,-2.3704,-2.3705,0,0,0,0,0,0,-2.2707,-2.2745,-2.2983,-2.2995,-2.2861,-2.3011,-2.3037,-2.3089,-2.3226,-2.3247,-2.3166,-2.3169,-2.3359,-2.3378,-2.3396,-2.3479,-2.347,-2.3478,-2.3483,-2.3704,-2.3705,-2.3705,0,0,0,0,0,0,-2.2699,-2.2727,-2.2974,-2.2872,-2.2905,-2.3017,-2.3075,-2.3094,-2.3136,-2.325,-2.327,-2.3189,-2.3359,-2.3383,-2.3471,-2.3488,-2.3482,-2.349,-2.3703,-2.3704,-2.3705,-2.3645,0,0,0,0,0,0,-2.269,-2.2724,-2.275,-2.2872,-2.291,-2.3047,-2.3076,-2.3098,-2.3152,-2.3158,-2.3276,-2.3295,-2.3361,-2.3457,-2.348,-2.3499,-2.3497,-2.3702,-2.3703,-2.3705,-2.3646,-2.3644,-2.3642,0,0,0,0,0,-2.2678,-2.2723,-2.275,-2.2779,-2.2945,-2.3047,-2.3069,-2.3145,-2.3152,-2.3179,-2.3252,-2.3292,-2.3482,-2.3466,-2.3491,-2.3514,-2.3701,-2.3703,-2.3705,-2.3647,-2.3645,-2.3642,0,0,0,0,0,0,-2.2598,-2.2741,-2.2772,-2.2859,-2.2941,-2.3063,-2.3098,-2.314,-2.322,-2.3222,-2.3311,-2.3337,-2.3417,-2.3475,-2.3454,-2.3582,-2.3595,-2.3602,-2.3542,-2.3541,-2.3539,-2.3524,-2.3504,0,0,0,0,0,-2.2591,-2.2664,-2.2784,-2.2849,-2.2888,-2.2986,-2.3033,-2.3085,-2.3172,-2.3207,-2.3286,-2.3369,-2.3448,-2.3497,-2.3576,-2.3655,-2.3682,-2.3683,-2.3681,-2.3679,-2.3684,-2.3731,-2.3733,-2.3711,-2.3711,-2.3711,0,0,-2.2577,-2.2663,-2.2703,-2.2835,-2.2904,-2.2977,-2.3014,-2.3089,-2.3143,-2.3218,-2.3306,-2.3367,-2.3465,-2.3549,-2.359,-2.3599,-2.3696,-2.3681,-2.3679,-2.3685,-2.3733,-2.3735,-2.3736,-2.3712,-2.3712,-2.3712,0,0,-2.2587,-2.266,-2.2723,-2.2792,-2.2897,-2.2962,-2.2976,-2.3093,-2.3137,-2.3227,-2.3285,-2.335,-2.3483,-2.3551,-2.3603,-2.364,-2.3679,-2.3663,-2.3653,-2.3697,-2.3699,-2.3701,-2.3714,-2.3718,-2.3667,-2.3667,-2.3667,0,-2.2555,-2.2668,-2.2749,-2.2822,-2.2877,-2.295,-2.3013,-2.3076,-2.32,-2.3237,-2.3246,-2.3416,-2.3486,-2.3587,-2.3596,-2.3636,-2.3655,-2.365,-2.3692,-2.3695,-2.3698,-2.3712,-2.3717,-2.3664,-2.3665,-2.3665,-2.3665,0,-2.2624,-2.2701,-2.2739,-2.2859,-2.2919,-2.2986,-2.3077,-2.3128,-2.3174,-2.3237,-2.3328,-2.3416,-2.3514,-2.3542,-2.3587,-2.3649,-2.3652,-2.3675,-2.369,-2.3696,-2.3711,-2.3717,-2.3661,-2.3662,-2.3662,-2.3663,0,0,-2.2591,-2.2756,-2.2768,-2.2824,-2.2945,-2.3006,-2.3076,-2.3174,-2.3216,-2.3299,-2.336,-2.3471,-2.3494,-2.3553,-2.3606,-2.3645,-2.3669,-2.3664,-2.3668,-2.3662,-2.3744,-2.3726,-2.3731,-2.3696,-2.3697,-2.3698,-2.3736,0,-2.2618,-2.2749,-2.2824,-2.2924,-2.2996,-2.3066,-2.3127,-2.3208,-2.3269,-2.3338,-2.3405,-2.3484,-2.3507,-2.3543,-2.3585,-2.3657,-2.3687,-2.3656,-2.3753,-2.3756,-2.3727,-2.3739,-2.372,-2.3751,-2.3742,-2.3743,-2.3744,0,-2.2668,-2.2752,-2.2859,-2.2973,-2.3006,-2.306,-2.3156,-2.3221,-2.3314,-2.3355,-2.3421,-2.3475,-2.3551,-2.3559,-2.3665,-2.3642,-2.3687,-2.3728,-2.3731,-2.3743,-2.375,-2.3751,-2.3763,-2.3767,-2.3753,-2.3753,-2.3752,0,-2.2634,-2.2773,-2.2855,-2.2901,-2.3036,-2.3072,-2.3129,-2.3222,-2.3276,-2.3359,-2.3394,-2.3484,-2.3533,-2.3601,-2.3677,-2.3676,-2.3776,-2.379,-2.3813,-2.3811,-2.3831,-2.3828,-2.3849,-2.3858,-2.3858,-2.3858,-2.3858,0,-2.2657,-2.272,-2.2842,-2.2892,-2.2965,-2.305,-2.3119,-2.3182,-2.3264,-2.3327,-2.3392,-2.345,-2.3547,-2.3616,-2.3676,-2.3755,-2.3776,-2.3812,-2.3827,-2.3807,-2.3802,-2.3837,-2.3837,-2.3859,-2.3859,-2.3859,-2.3858,0,-2.2631,-2.2715,-2.281,-2.293,-2.2962,-2.301,-2.3112,-2.3164,-2.3228,-2.3308,-2.3331,-2.3433,-2.3518,-2.3601,-2.3715,-2.3755,-2.3834,-2.3853,-2.3803,-2.3811,-2.3829,-2.3826,-2.3874,-2.3884,-2.3884,-2.3884,-2.3884,0,-2.2641,-2.2691,-2.2817,-2.2865,-2.2922,-2.2998,-2.3053,-2.3139,-2.3194,-2.3304,-2.3342,-2.3432,-2.3509,-2.3642,-2.3725,-2.3813,-2.3836,-2.3846,-2.3849,-2.3827,-2.3836,-2.3833,-2.3838,-2.3844,-2.3843,-2.3843,-2.3843,0,-2.2649,-2.2688,-2.2767,-2.286,-2.2925,-2.3002,-2.3082,-2.3117,-2.3217,-2.3276,-2.3365,-2.3425,-2.3542,-2.3631,-2.3728,-2.3786,-2.3831,-2.3841,-2.3851,-2.3831,-2.38,-2.3817,-2.3798,-2.384,-2.384,-2.384,-2.384,-2.3841,-2.2642,-2.269,-2.2787,-2.2872,-2.2941,-2.3014,-2.3068,-2.314,-2.3216,-2.332,-2.3365,-2.3455,-2.3546,-2.3682,-2.3739,-2.381,-2.3821,-2.3835,-2.3839,-2.3841,-2.3837,-2.3788,-2.3828,-2.3828,-2.3828,-2.3829,-2.3829,0,-2.2654,-2.272,-2.2798,-2.2908,-2.2974,-2.3012,-2.3102,-2.3155,-2.3234,-2.3316,-2.3391,-2.3493,-2.3579,-2.3669,-2.3761,-2.38,-2.3823,-2.3821,-2.382,-2.3832,-2.3822,-2.3804,-2.3801,-2.3801,-2.3801,-2.3801,-2.3801,-2.3801,-2.2669,-2.2753,-2.2803,-2.2922,-2.2987,-2.3077,-2.3125,-2.3192,-2.3258,-2.3369,-2.3442,-2.3501,-2.3586,-2.3685,-2.3766,-2.379,-2.3821,-2.3813,-2.3843,-2.3831,-2.3833,-2.3835,-2.3819,-2.3819,-2.3819,-2.3848,-2.3848,-2.3849]},{"header":{"parameterUnit":"m.s-1","parameterCategory":1,"la1":30.2991,"la2":30.254,"lo1":-89.0895,"lo2":-89.0444,"dx":0.0017,"dy":0.0017,"nx":28,"ny":28,"refTime":"2022-12-14T09:00:00:Z","depth":0,"parameterNumber":3,"parameterNumberName":"V-component_of_WINDS"},"data":[0,0,0,0,0,0,0,0,0,0,0,0,0,0,0,0,0,0,0,0,0,0,0,0,0,0,0,0,0,0,0,0,0,0,0,0,0,0,0,0,0,0,0,0,0,0,0,0,0,0,0,0,0,0,0,0,0,0,6.1847,6.1849,0,6.1967,6.1968,6.1969,6.199,6.1989,6.1988,6.1987,6.211,6.2114,6.2118,0,0,0,0,0,0,0,0,0,0,0,0,0,6.164,6.1643,6.1847,6.1849,6.185,6.1966,6.1968,6.197,6.199,6.1989,6.1988,6.1987,6.2108,6.2113,6.2118,0,0,0,0,0,0,0,0,0,0,0,0,0,6.1741,6.1645,6.1847,6.1874,6.1878,6.1966,6.1968,6.197,6.199,6.1989,6.1987,6.1986,6.2107,6.2113,6.2119,6.2188,0,0,6.2138,6.2141,0,0,0,0,0,0,0,0,6.1736,6.1749,6.1869,6.1873,6.1877,6.1962,6.194,6.2043,6.1991,6.1948,6.1987,6.1985,6.2062,6.2072,6.2097,6.2194,6.2199,6.2139,6.2142,6.2145,6.2147,0,0,0,0,0,0,0,6.1729,6.1744,6.1894,6.1871,6.1876,6.1882,6.1894,6.1959,6.2012,6.1951,6.1953,6.1967,6.2064,6.2091,6.21,6.2201,6.2138,6.2144,6.2148,6.215,6.2364,6.2366,0,0,0,0,0,0,6.1716,6.1738,6.1891,6.1898,6.1801,6.1887,6.1901,6.1936,6.2011,6.2021,6.1968,6.1968,6.2081,6.2093,6.2105,6.2194,6.2145,6.2151,6.2155,6.2362,6.2365,6.2367,0,0,0,0,0,0,6.1712,6.173,6.1886,6.1819,6.1839,6.1892,6.1931,6.1939,6.1967,6.2024,6.2033,6.1987,6.208,6.2096,6.2168,6.2198,6.2154,6.216,6.236,6.2363,6.2366,6.2371,0,0,0,0,0,0,6.1706,6.1728,6.1754,6.1819,6.1842,6.1947,6.1933,6.1943,6.1978,6.1978,6.2044,6.2053,6.208,6.2159,6.2174,6.2206,6.2164,6.2358,6.2362,6.2365,6.2368,6.2374,6.2378,0,0,0,0,0,6.1698,6.175,6.1755,6.1773,6.1876,6.1948,6.1962,6.1992,6.198,6.2008,6.2045,6.2051,6.2192,6.2166,6.2184,6.2218,6.2356,6.236,6.2365,6.2366,6.2373,6.2378,0,0,0,0,0,0,6.1686,6.1759,6.1765,6.1839,6.1888,6.1951,6.1987,6.1997,6.205,6.2048,6.2083,6.2098,6.2169,6.22,6.217,6.2291,6.2273,6.2281,6.2268,6.2275,6.228,6.2272,6.217,0,0,0,0,0,6.1692,6.1744,6.1805,6.1864,6.1888,6.1933,6.1966,6.1985,6.2037,6.2057,6.2099,6.2149,6.2205,6.2241,6.2296,6.2372,6.2389,6.2405,6.241,6.2414,6.2421,6.2468,6.2477,6.2381,6.2381,6.2381,0,0,6.1705,6.1751,6.1781,6.1863,6.1903,6.1958,6.195,6.2007,6.2049,6.2066,6.2138,6.217,6.2229,6.2305,6.234,6.2333,6.2451,6.2419,6.2422,6.2427,6.2474,6.2483,6.2491,6.2384,6.2383,6.2383,0,0,6.1757,6.1796,6.1852,6.1892,6.1953,6.1983,6.1996,6.2059,6.2082,6.2155,6.217,6.222,6.2314,6.2357,6.239,6.2462,6.2471,6.2478,6.2505,6.2551,6.2558,6.2565,6.2595,6.2604,6.2485,6.2485,6.2485,0,6.1766,6.1848,6.1879,6.1937,6.1974,6.1992,6.205,6.2088,6.2163,6.2189,6.2179,6.2301,6.2341,6.2429,6.2447,6.2472,6.2491,6.2472,6.2554,6.2562,6.2569,6.2597,6.2608,6.2486,6.2486,6.2485,6.2485,0,6.1858,6.1915,6.1953,6.2027,6.2067,6.2125,6.2166,6.2203,6.222,6.2251,6.2327,6.2376,6.2443,6.2465,6.248,6.2556,6.2551,6.2547,6.2531,6.2578,6.2606,6.2617,6.2487,6.2486,6.2486,6.2486,0,0,6.1906,6.1997,6.2011,6.2047,6.2116,6.2161,6.222,6.2286,6.232,6.2371,6.2424,6.2505,6.2504,6.2542,6.2563,6.2602,6.2661,6.2595,6.2597,6.2609,6.2753,6.2757,6.2769,6.2666,6.2669,6.267,6.2749,0,6.1969,6.2076,6.2107,6.2198,6.2253,6.2272,6.2325,6.2374,6.2405,6.2457,6.2492,6.2551,6.2542,6.2566,6.2606,6.2645,6.2691,6.2639,6.2719,6.2721,6.2707,6.2783,6.2787,6.2859,6.276,6.2761,6.2763,0,6.2057,6.2112,6.2209,6.2275,6.2299,6.2345,6.2411,6.2459,6.2516,6.2537,6.2581,6.2599,6.2664,6.2642,6.2734,6.2699,6.2733,6.2757,6.2761,6.2772,6.2747,6.28,6.2882,6.2895,6.2779,6.2778,6.2777,0,6.2088,6.2185,6.2257,6.2286,6.2363,6.2397,6.243,6.2486,6.2525,6.2581,6.2607,6.267,6.2705,6.2754,6.279,6.277,6.288,6.286,6.2901,6.2901,6.2926,6.2925,6.3019,6.2942,6.2942,6.2941,6.2941,0,6.2157,6.2217,6.2273,6.2317,6.2385,6.242,6.2487,6.2521,6.2571,6.2624,6.2643,6.2693,6.2735,6.2791,6.2818,6.2893,6.2907,6.2928,6.2935,6.2928,6.2926,6.2953,6.2951,6.2944,6.2944,6.2943,6.2943,0,6.2203,6.2243,6.2323,6.239,6.2409,6.2457,6.2515,6.256,6.2592,6.2659,6.2677,6.2729,6.2796,6.2835,6.2919,6.2938,6.3022,6.3025,6.3003,6.3007,6.3048,6.3045,6.3166,6.3186,6.3091,6.3092,6.3093,0,6.2247,6.2294,6.2367,6.2404,6.2438,6.2497,6.2538,6.2574,6.2616,6.2686,6.2723,6.2791,6.2848,6.2954,6.3,6.3066,6.3073,6.3111,6.3083,6.3076,6.3079,6.3077,6.3084,6.3117,6.3117,6.3118,6.3119,0,6.2321,6.2339,6.2396,6.2462,6.251,6.2563,6.2616,6.2645,6.2691,6.2737,6.2806,6.285,6.2937,6.3006,6.3076,6.3112,6.3125,6.3127,6.3141,6.3136,6.3123,6.3135,6.302,6.3125,6.3124,6.3124,6.3123,6.3123,6.2371,6.2415,6.2474,6.2538,6.2582,6.2632,6.2679,6.2718,6.2776,6.285,6.2868,6.2942,6.3001,6.3096,6.3134,6.3193,6.3187,6.3206,6.3212,6.3217,6.322,6.3111,6.3205,6.3205,6.3205,6.3205,6.3205,0,6.245,6.2489,6.2548,6.2622,6.2674,6.268,6.274,6.2783,6.2847,6.2901,6.2957,6.3039,6.3106,6.3158,6.3227,6.3265,6.3273,6.3283,6.3282,6.3292,6.3219,6.3203,6.3276,6.3276,6.3276,6.3276,6.3276,6.3276,6.2497,6.2573,6.2599,6.2698,6.2737,6.281,6.2844,6.2891,6.2935,6.3025,6.3081,6.3114,6.3169,6.3243,6.3306,6.332,6.3346,6.3356,6.3371,6.3303,6.3296,6.3289,6.3273,6.336,6.336,6.3439,6.3439,6.344]}]]